COSMOS 1275 DEB, 12653

Orbit data source: Space-Track

COSMOS 1275 DEB, 12653 is space debris in LEO originally from a launch on Thu, 04 Jun 1981 UTC launched from the Plesetsk Missile And Space Complex (PKMTR). Debris objects in space refer to the collection of defunct objects orbiting the Earth. Examples of debris include non-operational satellites, rocket bodies, and fragments generated from explosions, collisions, or faulty payload assembly.

Loading next visibility...
Identifier
12653, 1981-053H
Orbit
LEO
Country
Flag of CISCIS
Related business
Manufacturer
Unknown
Mission
Spacecraft
Bus & Motor
Unknown
Mass
Unknown
Launch date (UTC)
1981-06-04 (45 years ago)
Launch vehicle
Unknown
Launch site
Plesetsk Missile And Space Complex (PKMTR)
Object type
Payload
Rocket body
Debris
Shape & HBR
Unknown shape, 0.6 m
Radar Cross Section
Medium (>0.1 m² and <1 m²)

Expand to show TLE details & history
Last TLE update: 2 days ago

TLE from 2 days ago
0 COSMOS 1275 DEB
1 12653U 81053H   26171.28982677  .00000398  00000-0  31701-3 0  9995
2 12653  82.9343  90.3660 0029323 292.3069 183.1741 13.88612814262784
Epoch: 2026-06-20T06:57Z
TLE epoch observation values (Epoch: 2026-06-20T06:57:21.032Z)
Latitude
63.72667°
Longitude
-116.94267°
Altitude
965.882 km
Speed
7.364 km/s
True Right ascension
17h 03m 36s
True Declination
63° 35' 38"
Sunlit
Object was in daylight at epoch
Visualization orbit readout
Latitude
Unknown
Longitude
Unknown
Altitude
Unknown
Speed
Unknown
Apparent Right ascension
Unknown
Apparent Declination
Unknown
Sunlit
N/A
Visualization observer readout
Local Sidereal Time
17:31:40
Azimuth
Unknown
Elevation
Unknown
Doppler factor
Unknown
Orbital elements
Apogee altitude
952.058 km
Perigee altitude
909.195 km
Semi-major axis
7,308.763 km
Eccentricity
0.00293
Inclination
82.9343°
RAAN
90.366°
Arg. of periapsis
292.3069°
True anomaly
183.15556°
Mean anomaly
183.1741°
Eccentric anomaly
183.16482°
Mean motion
3.47358 °/min
Orbital period
103.64 mins
BSTAR
0.00031701
Loading maneuver chart data...
Computing Atmospheric mass density...
Loading historical data...
Loading historical data...
Loading historical data...
Loading historical data...
Loading historical data...
Loading historical data...
Loading historical data...

Documentation

Showing up to 5 results
|